Regional Weather Roundup
Issued by NWS Green Bay, WI

Home | Current Version | Previous Version | Text Only | Print | Product List | Glossary On
Versions: 1 2 3 4 5 6 7 8 9 10 11 12 13 14 15 16 17 18 19 20 21 22 23 24 25 26 27 28 29 30 31 32 33 34 35 36 37 38 39 40 41 42 43 44 45 46 47 48 49 50
000
ASUS43 KGRB 241911
RWRGRB

NORTH-CENTRAL AND NORTHEAST WISCONSIN REGIONAL WEATHER ROUNDUP
NATIONAL WEATHER SERVICE GREEN BAY WI
100 PM CST FRI FEB 24 2017

WIZ005-009-010>012-018-019-242000-
NORTH CENTRAL WISCONSIN

CITY           SKY/WX    TMP DP  RH WIND       PRES   REMARKS
IRONWOOD       LGT SNOW  21  16  81 N10G20    29.83F WCI  10
MANITOWISH WTR LGT SNOW  20  17  88 N10G21    29.75F WCI   8
ARBOR VITAE    LGT SNOW  22  18  83 N10G20      N/A
EAGLE RIVER    LGT SNOW  21  15  79 N17       29.71F WCI   6
LAND O LAKES   LGT SNOW  20  16  84 NE14      29.75F WCI   6
RHINELANDER    LGT SNOW  23  18  81 N13G21    29.68F
PHILLIPS       LGT SNOW  22  17  80 N15G22    29.73F WCI   9
ANTIGO         LGT SNOW  22  19  86 N20       29.64S WCI   7
TOMAHAWK       LGT SNOW  22  18  82 N14G22    29.70F WCI  10
MERRILL        NOT AVBL
$$

WIZ013-073-242000-
NORTHEAST WISCONSIN

CITY           SKY/WX    TMP DP  RH WIND       PRES   REMARKS
IRON MOUNTAIN  SNOW      24  19  81 N17G25    29.68F VSB 1/2
MARINETTE      MIX PCPN  27  24  89 N16G22    29.66S FOG
OCONTO         CLOUDY    27  24  89 N13G20    29.64F
$$

WIZ017-030-035>037-045-242000-
CENTRAL WISCONSIN

CITY           SKY/WX    TMP DP  RH WIND       PRES   REMARKS
MEDFORD        CLOUDY    23  18  81 N20G26    29.66F WCI   8
WAUSAU         LGT SNOW  24  19  81 N15G22    29.65S
MOSINEE        LGT SNOW  25  23  93 N16       29.65F
MARSHFIELD     CLOUDY    25  20  81 NE12G22   29.63F HAZE
WISC RAPIDS    FRZ RAIN  27  24  89 NE16      29.65F FOG
STEVENS POINT  MIX PCPN  24  22  93 NE18G24   29.65F WCI  10
WAUPACA        CLOUDY    29  25  83 N16G24    29.63S FOG
SHAWANO        CLOUDY    28  24  84 NE16G24   29.65F FOG
CLINTONVILLE   CLOUDY    28  23  80 NE17G28   29.63F FOG
WAUTOMA        LGT SNOW  28  25  88 N14G21    29.62S FOG
$$

WIZ038-039-048-051-242000-
FOX VALLEY

CITY           SKY/WX    TMP DP  RH WIND       PRES   REMARKS
NWS GREEN BAY  LGT SNOW  29  27  92 N18G36    29.61F FOG
APPLETON       CLOUDY    25  27 100 NE21G29   29.58F FOG
OSHKOSH        CLOUDY    28  25  88 N24G31    29.58F FOG
FOND DU LAC    MIX PCPN  29  25  85 N24G30    29.56F FOG
$$

WIZ022-050-052-242000-
EAST CENTRAL WISCONSIN

CITY           SKY/WX    TMP DP  RH WIND       PRES   REMARKS
EPHRAIM        MIX PCPN  27  27  99 N13G23    29.63S
WASHINGTON ISL MIX PCPN  27  26  93 NE21G29   29.63F
STURGEON BAY   MIX PCPN  28  26  92 NE15G23   29.62F FOG
MANITOWOC      MIX PCPN  32  30  92 N17G24    29.56F FOG
SHEBOYGAN      MIX PCPN  32  31  96 NE22G28   29.53F VSB 1
$$

LMZ563-521-522-541>543-242000-
LAKESHORE

STATION/POSITION TIME  TEMP    WIND        PRES    VSBY  WAVE
                       AIR SEA DIR/SP/G                  HT/PER
                 (UTC) (F)     (DEG/KT/KT) (MB)    (MI)  (FT/S)
SHEBOYGAN LKSHOR 1900   33      20/ 26/ 31 1000.5F
KEWAUNEE LKSHORE 1848   31      40/ 22/ 30 1002.0F
NORTHPORT PIER   1840   28      20/ 17/ 22 1004.4F
SISTER BAY LKSHO 1750   29     360/ 17/ 28   N/A
CHAMBERS ISLAND  1840   28     360/ 21/ 32 1003.7F
MENOMINEE LKSHOR 1848   27     360/ 15/ 20 1003.4F
$$



USA.gov is the U.S. government's official web portal to all federal, state and local government web resources and services.